This is the latest recevied weather packets stored in our database for station/object N8HKU-5. If no packets are shown the sender has not sent any weather packets the latest 10 day(s).
| Time | Temp. | Humidity | Pressure | Rain* | Wind** | Luminosity | Snow |
|---|---|---|---|---|---|---|---|
| 1777612353 | 5.56° C | 83% | 1012 hPa | 0.25 mm | - | - | - |
| 1777611754 | 5.56° C | 82% | 1012.2 hPa | 0.51 mm | - | - | - |
| 1777611154 | 5.56° C | 82% | 1012.3 hPa | 0.51 mm | - | - | - |
| 1777610554 | 5.56° C | 81% | 1012.2 hPa | 0.25 mm | - | - | - |
| 1777609954 | 5.56° C | 79% | 1012.4 hPa | 0.25 mm | - | - | - |
| 1777609354 | 6.11° C | 79% | 1012.3 hPa | 0.25 mm | - | - | - |
| 1777608753 | 6.11° C | 76% | 1012.2 hPa | 0.25 mm | - | - | - |
| 1777608154 | 6.67° C | 73% | 1012.3 hPa | 0 mm | - | - | - |
| 1777607554 | 7.22° C | 68% | 1012.3 hPa | 0 mm | - | - | - |
| 1777606954 | 7.78° C | 66% | 1012.4 hPa | 0 mm | - | - | - |
| 1777606354 | 7.78° C | 63% | 1012.6 hPa | 0 mm | - | - | - |
| 1777605753 | 8.33° C | 61% | 1012.7 hPa | 0 mm | - | - | - |
| 1777605153 | 8.33° C | 57% | 1012.7 hPa | 0 mm | - | - | - |
| 1777604553 | 8.33° C | 57% | 1012.7 hPa | 0 mm | - | - | - |
| 1777603954 | 8.33° C | 55% | 1012.6 hPa | 0 mm | - | - | - |
| 1777603354 | 8.89° C | 55% | 1012.6 hPa | 0 mm | - | - | - |
| 1777602754 | 8.89° C | 54% | 1012.6 hPa | 0 mm | - | - | - |
| 1777602153 | 8.89° C | 53% | 1012.5 hPa | 0 mm | - | - | - |
| 1777601553 | 8.89° C | 53% | 1012.4 hPa | 0 mm | - | - | - |
| 1777600954 | 8.89° C | 53% | 1012.3 hPa | 0 mm | - | - | - |
| 1777600353 | 8.89° C | 53% | 1012.1 hPa | 0 mm | - | - | - |
| 1777599754 | 8.89° C | 53% | 1012 hPa | 0 mm | - | - | - |
| 1777599153 | 8.89° C | 52% | 1012 hPa | 0 mm | - | - | - |
| 1777598553 | 8.89° C | 52% | 1011.9 hPa | 0 mm | - | - | - |
| 1777597954 | 8.89° C | 51% | 1011.8 hPa | 0 mm | - | - | - |
* Rain latest hour (hover to see other rain measurements)
** Current wind speed in m/s (hover to see current wind gust speed)